TimeCST,TemperatureF,Dew PointF,Humidity,Sea Level PressureIn,VisibilityMPH,Wind Direction,Wind SpeedMPH,Gust SpeedMPH,PrecipitationIn,Events,Conditions,WindDirDegrees,DateUTC
12:15 AM,11.3,6.8,82,30.20,10.0,Calm,Calm,-,N/A,,Clear,0,2014-02-11 06:15:00
12:35 AM,10.2,5.9,83,30.19,10.0,Calm,Calm,-,N/A,,Clear,0,2014-02-11 06:35:00
12:55 AM,9.5,5.9,85,30.18,10.0,Calm,Calm,-,N/A,,Clear,0,2014-02-11 06:55:00
1:15 AM,7.5,3.7,85,30.17,10.0,Calm,Calm,-,N/A,,Clear,0,2014-02-11 07:15:00
1:35 AM,8.2,4.5,85,30.17,10.0,Calm,Calm,-,N/A,,Clear,0,2014-02-11 07:35:00
1:55 AM,8.6,4.6,84,30.17,10.0,Calm,Calm,-,N/A,,Clear,0,2014-02-11 07:55:00
2:15 AM,8.2,4.3,84,30.16,7.0,Calm,Calm,-,N/A,Snow,Light Snow,0,2014-02-11 08:15:00
2:35 AM,11.5,7.9,85,30.16,7.0,SW,5.8,-,N/A,Snow,Light Snow,230,2014-02-11 08:35:00
2:55 AM,13.5,10.0,86,30.15,7.0,SW,5.8,-,N/A,,Overcast,220,2014-02-11 08:55:00
3:15 AM,13.8,10.4,86,30.15,7.0,SW,4.6,-,N/A,,Overcast,230,2014-02-11 09:15:00
3:35 AM,14.5,11.1,86,30.14,7.0,WSW,3.5,-,N/A,,Overcast,240,2014-02-11 09:35:00
3:55 AM,14.7,11.3,86,30.12,7.0,Calm,Calm,-,N/A,,Overcast,0,2014-02-11 09:55:00
4:15 AM,15.4,12.2,87,30.12,7.0,SW,8.1,-,N/A,,Overcast,220,2014-02-11 10:15:00
4:35 AM,15.8,12.6,87,30.12,7.0,SSW,6.9,-,N/A,,Overcast,210,2014-02-11 10:35:00
4:55 AM,15.8,12.9,88,30.11,5.0,SSW,8.1,-,N/A,,Overcast,210,2014-02-11 10:55:00
5:15 AM,16.3,13.1,87,30.11,5.0,SSW,9.2,-,N/A,,Overcast,210,2014-02-11 11:15:00
5:35 AM,16.5,13.5,88,30.10,5.0,SSW,5.8,-,N/A,,Overcast,210,2014-02-11 11:35:00
5:55 AM,16.2,12.7,86,30.10,7.0,SSW,6.9,-,N/A,,Overcast,200,2014-02-11 11:55:00
6:15 AM,15.8,12.2,86,30.09,7.0,SSW,10.4,-,N/A,,Overcast,200,2014-02-11 12:15:00
6:35 AM,15.6,12.2,86,30.09,7.0,SSW,6.9,-,N/A,,Overcast,210,2014-02-11 12:35:00
6:55 AM,15.6,12.6,88,30.09,5.0,SSW,10.4,-,N/A,,Overcast,210,2014-02-11 12:55:00
7:15 AM,15.8,12.9,88,30.08,5.0,SSW,4.6,-,N/A,,Overcast,210,2014-02-11 13:15:00
7:35 AM,16.3,13.1,87,30.08,5.0,SSW,6.9,-,N/A,,Overcast,210,2014-02-11 13:35:00
7:55 AM,16.7,13.6,88,30.07,4.0,SSW,6.9,-,N/A,,Overcast,210,2014-02-11 13:55:00
8:15 AM,17.2,14.0,87,30.06,4.0,SSW,6.9,-,N/A,,Overcast,200,2014-02-11 14:15:00
8:35 AM,17.4,14.4,88,30.06,4.0,SSW,6.9,-,N/A,,Overcast,210,2014-02-11 14:35:00
8:55 AM,18.3,15.3,88,30.06,4.0,SSW,5.8,-,N/A,,Overcast,210,2014-02-11 14:55:00
9:15 AM,19.0,15.8,87,30.05,4.0,SSW,9.2,-,N/A,,Overcast,210,2014-02-11 15:15:00
9:35 AM,19.8,16.7,88,30.05,3.0,SSW,6.9,-,N/A,,Overcast,210,2014-02-11 15:35:00
9:55 AM,20.7,17.8,89,30.04,3.0,SSW,12.7,16.1,N/A,,Overcast,200,2014-02-11 15:55:00
10:15 AM,21.2,18.3,89,30.04,4.0,SSW,10.4,-,N/A,,Overcast,210,2014-02-11 16:15:00
10:35 AM,21.7,18.9,89,30.04,4.0,SW,11.5,16.1,N/A,,Overcast,220,2014-02-11 16:35:00
10:55 AM,23.4,20.1,87,30.04,4.0,SSW,12.7,-,N/A,,Scattered Clouds,210,2014-02-11 16:55:00
11:15 AM,25.0,19.8,81,30.03,5.0,SSW,10.4,-,N/A,,Haze,210,2014-02-11 17:15:00
11:35 AM,26.4,19.4,75,30.03,5.0,SSW,11.5,-,N/A,,Haze,210,2014-02-11 17:35:00
11:55 AM,27.3,19.8,73,30.01,5.0,SSW,13.8,-,N/A,,Haze,210,2014-02-11 17:55:00
12:15 PM,28.2,19.6,70,30.01,7.0,SSW,12.7,-,N/A,,Clear,210,2014-02-11 18:15:00
12:35 PM,29.5,19.6,67,29.99,7.0,SSW,13.8,-,N/A,,Clear,210,2014-02-11 18:35:00
12:55 PM,30.6,20.5,66,29.97,7.0,SSW,12.7,-,N/A,,Clear,210,2014-02-11 18:55:00
1:15 PM,30.7,20.5,66,29.97,7.0,SSW,11.5,-,N/A,,Clear,210,2014-02-11 19:15:00
1:35 PM,31.3,21.0,66,29.95,7.0,SSW,8.1,-,N/A,,Clear,210,2014-02-11 19:35:00
1:55 PM,31.5,21.2,66,29.93,7.0,SSW,12.7,18.4,N/A,,Clear,210,2014-02-11 19:55:00
2:15 PM,32.0,21.9,66,29.92,7.0,SSW,12.7,17.3,N/A,,Clear,210,2014-02-11 20:15:00
2:35 PM,32.5,22.8,67,29.91,7.0,SSW,10.4,-,N/A,,Clear,200,2014-02-11 20:35:00
2:55 PM,33.1,22.6,66,29.90,7.0,SSW,12.7,-,N/A,,Clear,210,2014-02-11 20:55:00
3:15 PM,34.2,22.5,62,29.89,7.0,SSW,11.5,-,N/A,,Clear,210,2014-02-11 21:15:00
3:35 PM,35.6,23.4,61,29.89,7.0,SSW,10.4,-,N/A,,Clear,210,2014-02-11 21:35:00
3:55 PM,35.6,23.5,62,29.89,10.0,SSW,13.8,-,N/A,,Clear,210,2014-02-11 21:55:00
4:15 PM,33.1,22.8,66,29.89,7.0,SSW,16.1,21.9,N/A,,Clear,210,2014-02-11 22:15:00
4:35 PM,32.4,22.6,67,29.87,7.0,SSW,12.7,-,N/A,,Clear,200,2014-02-11 22:35:00
4:55 PM,31.6,22.5,69,29.87,7.0,SSW,13.8,-,N/A,,Clear,200,2014-02-11 22:55:00
5:15 PM,31.1,22.5,70,29.87,7.0,SSW,13.8,-,N/A,,Clear,210,2014-02-11 23:15:00
5:35 PM,30.9,22.5,71,29.87,5.0,SSW,16.1,-,N/A,,Haze,210,2014-02-11 23:35:00
5:55 PM,30.4,22.1,71,29.87,5.0,SSW,16.1,-,N/A,,Haze,210,2014-02-11 23:55:00
6:15 PM,30.2,22.1,72,29.87,5.0,SSW,15.0,19.6,N/A,,Haze,210,2014-02-12 00:15:00
6:35 PM,30.2,22.1,72,29.87,5.0,SSW,11.5,-,N/A,,Haze,210,2014-02-12 00:35:00
6:55 PM,30.2,22.5,73,29.88,5.0,SW,6.9,-,N/A,,Haze,220,2014-02-12 00:55:00
7:15 PM,30.6,22.8,73,29.87,5.0,SW,11.5,-,N/A,,Haze,220,2014-02-12 01:15:00
7:35 PM,30.7,23.0,73,29.87,5.0,SSW,11.5,-,N/A,,Haze,210,2014-02-12 01:35:00
7:55 PM,30.6,23.0,74,29.87,5.0,SSW,13.8,-,N/A,,Haze,210,2014-02-12 01:55:00
8:15 PM,30.2,23.0,75,29.87,5.0,SW,10.4,-,N/A,,Haze,220,2014-02-12 02:15:00
8:35 PM,29.8,23.0,76,29.87,5.0,SW,8.1,-,N/A,,Haze,220,2014-02-12 02:35:00
8:55 PM,29.7,23.0,76,29.87,5.0,SSW,9.2,-,N/A,,Haze,210,2014-02-12 02:55:00
9:15 PM,29.3,23.0,77,29.87,5.0,Calm,Calm,-,N/A,,Haze,0,2014-02-12 03:15:00
9:35 PM,28.6,22.5,78,29.87,5.0,WSW,4.6,-,N/A,,Haze,240,2014-02-12 03:35:00
9:55 PM,29.1,22.8,77,29.87,5.0,SW,3.5,-,N/A,,Haze,220,2014-02-12 03:55:00
10:15 PM,29.3,22.8,77,29.87,5.0,Calm,Calm,-,N/A,,Haze,0,2014-02-12 04:15:00
10:35 PM,29.3,23.0,77,29.88,5.0,Calm,Calm,-,N/A,,Haze,0,2014-02-12 04:35:00
10:55 PM,30.7,23.5,75,29.89,5.0,WSW,3.5,-,N/A,,Haze,240,2014-02-12 04:55:00
11:15 PM,32.4,24.4,73,29.89,10.0,West,10.4,-,N/A,,Mostly Cloudy,280,2014-02-12 05:15:00
11:35 PM,33.3,24.8,71,29.89,10.0,WNW,11.5,-,N/A,,Clear,300,2014-02-12 05:35:00
11:55 PM,34.2,26.4,73,29.90,10.0,NW,9.2,-,N/A,,Clear,310,2014-02-12 05:55:00